Time,TemperatureF,DewpointF,PressureIn,WindDirection,WindDirectionDegrees,WindSpeedMPH,WindSpeedGustMPH,Humidity,HourlyPrecipIn,Conditions,Clouds,dailyrainin,SoftwareType,DateUTC
2013-06-05 00:10:00,53.7,53.0,30.01,ENE,78,2.0,3.0,98,0.00,,,0.00,weatherlink.com 1.10,2013-06-05 04:10:00,
2013-06-05 00:25:00,53.4,53.0,30.00,East,90,0.0,3.0,98,0.00,,,0.00,weatherlink.com 1.10,2013-06-05 04:25:00,
2013-06-05 00:40:00,53.4,53.0,30.00,East,95,1.0,3.0,98,0.00,,,0.00,weatherlink.com 1.10,2013-06-05 04:40:00,
2013-06-05 00:55:00,53.2,53.0,30.00,East,96,1.0,2.0,98,0.00,,,0.00,weatherlink.com 1.10,2013-06-05 04:55:00,
2013-06-05 01:10:00,53.3,53.0,30.00,ESE,105,1.0,4.0,98,0.00,,,0.00,weatherlink.com 1.10,2013-06-05 05:10:00,
2013-06-05 01:25:00,53.9,53.0,30.00,East,79,2.0,3.0,98,0.00,,,0.00,weatherlink.com 1.10,2013-06-05 05:25:00,
2013-06-05 01:40:00,54.3,54.0,30.00,East,100,1.0,4.0,98,0.00,,,0.00,weatherlink.com 1.10,2013-06-05 05:40:00,
2013-06-05 01:55:00,54.5,54.0,30.00,ENE,64,1.0,5.0,98,0.00,,,0.00,weatherlink.com 1.10,2013-06-05 05:55:00,
2013-06-05 02:10:00,54.9,54.0,29.99,ESE,109,1.0,3.0,98,0.00,,,0.00,weatherlink.com 1.10,2013-06-05 06:10:00,
2013-06-05 02:25:00,55.3,55.0,30.00,SE,128,0.0,5.0,98,0.00,,,0.00,weatherlink.com 1.10,2013-06-05 06:25:00,
2013-06-05 02:40:00,55.1,55.0,29.99,ENE,74,0.0,5.0,98,0.00,,,0.00,weatherlink.com 1.10,2013-06-05 06:40:00,
2013-06-05 02:55:00,55.1,55.0,29.99,East,100,2.0,4.0,98,0.00,,,0.00,weatherlink.com 1.10,2013-06-05 06:55:00,
2013-06-05 03:10:00,55.1,55.0,29.99,ENE,61,0.0,5.0,98,0.00,,,0.00,weatherlink.com 1.10,2013-06-05 07:10:00,
2013-06-05 03:40:00,55.3,55.0,29.99,ENE,72,0.0,4.0,98,0.00,,,0.00,weatherlink.com 1.10,2013-06-05 07:40:00,
2013-06-05 03:55:00,55.5,55.0,29.98,ENE,78,1.0,8.0,99,0.00,,,0.00,weatherlink.com 1.10,2013-06-05 07:55:00,
2013-06-05 04:10:00,55.7,56.0,29.98,East,96,2.0,8.0,99,0.00,,,0.00,weatherlink.com 1.10,2013-06-05 08:10:00,
2013-06-05 04:25:00,55.6,55.0,29.99,ESE,104,1.0,7.0,99,0.00,,,0.00,weatherlink.com 1.10,2013-06-05 08:25:00,
2013-06-05 04:40:00,55.4,55.0,29.99,ENE,65,2.0,4.0,98,0.00,,,0.00,weatherlink.com 1.10,2013-06-05 08:40:00,
2013-06-05 04:55:00,55.4,55.0,29.99,East,98,5.0,5.0,98,0.00,,,0.00,weatherlink.com 1.10,2013-06-05 08:55:00,
2013-06-05 05:10:00,55.3,55.0,29.99,East,96,0.0,6.0,98,0.00,,,0.00,weatherlink.com 1.10,2013-06-05 09:10:00,
2013-06-05 05:25:00,55.2,55.0,29.99,NNE,33,0.0,3.0,98,0.00,,,0.00,weatherlink.com 1.10,2013-06-05 09:25:00,
2013-06-05 05:40:00,55.2,55.0,29.99,ESE,117,2.0,3.0,98,0.00,,,0.00,weatherlink.com 1.10,2013-06-05 09:40:00,
2013-06-05 05:55:00,55.1,55.0,29.99,East,86,1.0,5.0,99,0.00,,,0.00,weatherlink.com 1.10,2013-06-05 09:55:00,
2013-06-05 06:10:00,55.0,55.0,30.00,ENE,58,0.0,3.0,99,0.00,,,0.00,weatherlink.com 1.10,2013-06-05 10:10:00,
2013-06-05 06:26:00,55.1,55.0,30.00,SE,131,2.0,4.0,99,0.00,,,0.00,weatherlink.com 1.10,2013-06-05 10:26:00,
2013-06-05 06:41:00,55.0,55.0,30.00,East,97,3.0,5.0,99,0.00,,,0.00,weatherlink.com 1.10,2013-06-05 10:41:00,
2013-06-05 06:56:00,55.1,55.0,30.01,East,101,2.0,6.0,99,0.00,,,0.00,weatherlink.com 1.10,2013-06-05 10:56:00,
2013-06-05 07:11:00,55.3,55.0,30.01,ESE,107,1.0,3.0,99,0.00,,,0.00,weatherlink.com 1.10,2013-06-05 11:11:00,
2013-06-05 07:26:00,55.4,55.0,30.01,East,100,0.0,5.0,99,0.00,,,0.00,weatherlink.com 1.10,2013-06-05 11:26:00,
2013-06-05 07:41:00,55.7,56.0,30.01,ESE,117,2.0,3.0,99,0.00,,,0.00,weatherlink.com 1.10,2013-06-05 11:41:00,
2013-06-05 07:56:00,55.8,56.0,30.02,East,93,2.0,3.0,99,0.00,,,0.00,weatherlink.com 1.10,2013-06-05 11:56:00,
2013-06-05 08:11:00,55.9,56.0,30.02,ESE,109,0.0,5.0,99,0.00,,,0.00,weatherlink.com 1.10,2013-06-05 12:11:00,
2013-06-05 08:26:00,56.5,56.0,30.02,NE,51,0.0,3.0,99,0.00,,,0.00,weatherlink.com 1.10,2013-06-05 12:26:00,
2013-06-05 08:41:00,56.9,57.0,30.02,East,92,0.0,2.0,99,0.00,,,0.00,weatherlink.com 1.10,2013-06-05 12:41:00,
2013-06-05 08:56:00,57.1,57.0,30.02,East,83,0.0,2.0,99,0.00,,,0.00,weatherlink.com 1.10,2013-06-05 12:56:00,
2013-06-05 09:11:00,57.3,57.0,30.02,East,95,0.0,2.0,99,0.00,,,0.00,weatherlink.com 1.10,2013-06-05 13:11:00,
2013-06-05 09:26:00,57.3,57.0,30.02,East,92,0.0,5.0,99,0.00,,,0.00,weatherlink.com 1.10,2013-06-05 13:26:00,
2013-06-05 09:41:00,57.3,57.0,30.02,East,80,0.0,6.0,99,0.00,,,0.00,weatherlink.com 1.10,2013-06-05 13:41:00,
2013-06-05 09:56:00,58.0,58.0,30.02,East,83,0.0,3.0,99,0.00,,,0.00,weatherlink.com 1.10,2013-06-05 13:56:00,
2013-06-05 10:26:00,59.8,60.0,30.01,East,82,1.0,2.0,99,0.00,,,0.00,weatherlink.com 1.10,2013-06-05 14:26:00,
2013-06-05 10:41:00,59.3,59.0,30.01,East,84,2.0,3.0,98,0.00,,,0.00,weatherlink.com 1.10,2013-06-05 14:41:00,
2013-06-05 10:56:00,60.5,60.0,30.01,ESE,105,1.0,8.0,98,0.00,,,0.00,weatherlink.com 1.10,2013-06-05 14:56:00,
2013-06-05 11:11:00,60.8,59.0,30.00,East,80,0.0,4.0,95,0.00,,,0.00,weatherlink.com 1.10,2013-06-05 15:11:00,
2013-06-05 11:26:00,60.9,59.0,30.00,ENE,74,0.0,6.0,93,0.00,,,0.00,weatherlink.com 1.10,2013-06-05 15:26:00,
2013-06-05 11:41:00,62.9,60.0,30.00,East,82,0.0,4.0,91,0.00,,,0.00,weatherlink.com 1.10,2013-06-05 15:41:00,
2013-06-05 11:56:00,63.1,59.0,30.00,ENE,66,2.0,8.0,87,0.00,,,0.00,weatherlink.com 1.10,2013-06-05 15:56:00,
2013-06-05 12:11:00,63.1,60.0,29.99,ENE,67,1.0,3.0,88,0.00,,,0.00,weatherlink.com 1.10,2013-06-05 16:11:00,
2013-06-05 12:26:00,63.1,59.0,29.98,NE,50,1.0,6.0,87,0.00,,,0.00,weatherlink.com 1.10,2013-06-05 16:26:00,
2013-06-05 12:41:00,62.1,59.0,29.98,ENE,74,1.0,5.0,89,0.00,,,0.00,weatherlink.com 1.10,2013-06-05 16:41:00,
2013-06-05 12:56:00,63.3,59.0,29.98,ENE,66,0.0,5.0,87,0.00,,,0.00,weatherlink.com 1.10,2013-06-05 16:56:00,
2013-06-05 13:11:00,63.5,60.0,29.98,NW,306,1.0,4.0,88,0.00,,,0.00,weatherlink.com 1.10,2013-06-05 17:11:00,
2013-06-05 13:26:00,61.8,59.0,29.98,NE,41,1.0,5.0,90,0.00,,,0.00,weatherlink.com 1.10,2013-06-05 17:26:00,
2013-06-05 13:41:00,62.3,59.0,29.97,NE,56,1.0,5.0,89,0.00,,,0.00,weatherlink.com 1.10,2013-06-05 17:41:00,
2013-06-05 13:56:00,61.8,59.0,29.98,East,84,2.0,7.0,90,0.00,,,0.00,weatherlink.com 1.10,2013-06-05 17:56:00,
2013-06-05 14:11:00,60.6,58.0,29.97,NE,53,3.0,7.0,91,0.00,,,0.00,weatherlink.com 1.10,2013-06-05 18:11:00,
2013-06-05 14:26:00,61.8,59.0,29.96,ENE,57,3.0,7.0,90,0.00,,,0.00,weatherlink.com 1.10,2013-06-05 18:26:00,
2013-06-05 14:42:00,62.1,59.0,29.96,NE,44,1.0,7.0,89,0.00,,,0.00,weatherlink.com 1.10,2013-06-05 18:42:00,
2013-06-05 14:56:00,61.5,59.0,29.95,NE,39,0.0,5.0,91,0.00,,,0.00,weatherlink.com 1.10,2013-06-05 18:56:00,
2013-06-05 15:11:00,61.1,58.0,29.95,ESE,113,3.0,8.0,90,0.00,,,0.00,weatherlink.com 1.10,2013-06-05 19:11:00,
2013-06-05 15:26:00,60.8,59.0,29.95,East,81,0.0,3.0,92,0.00,,,0.00,weatherlink.com 1.10,2013-06-05 19:26:00,
2013-06-05 15:41:00,60.7,58.0,29.94,ESE,102,1.0,5.0,91,0.00,,,0.00,weatherlink.com 1.10,2013-06-05 19:41:00,
2013-06-05 15:56:00,60.1,58.0,29.94,ENE,63,0.0,5.0,93,0.00,,,0.00,weatherlink.com 1.10,2013-06-05 19:56:00,
2013-06-05 16:12:00,59.9,58.0,29.93,ENE,69,1.0,4.0,93,0.00,,,0.00,weatherlink.com 1.10,2013-06-05 20:12:00,
2013-06-05 16:26:00,59.1,57.0,29.93,ESE,103,4.0,7.0,94,0.00,,,0.00,weatherlink.com 1.10,2013-06-05 20:26:00,
2013-06-05 16:42:00,58.6,58.0,29.93,NE,40,1.0,4.0,96,0.00,,,0.00,weatherlink.com 1.10,2013-06-05 20:42:00,
2013-06-05 16:57:00,57.9,57.0,29.92,ESE,115,0.0,6.0,96,0.00,,,0.00,weatherlink.com 1.10,2013-06-05 20:57:00,
2013-06-05 17:12:00,57.5,56.0,29.93,East,80,0.0,7.0,96,0.00,,,0.00,weatherlink.com 1.10,2013-06-05 21:12:00,
2013-06-05 17:27:00,57.7,57.0,29.93,East,89,0.0,3.0,97,0.00,,,0.00,weatherlink.com 1.10,2013-06-05 21:27:00,
2013-06-05 17:42:00,57.8,57.0,29.92,NNE,29,1.0,5.0,97,0.00,,,0.00,weatherlink.com 1.10,2013-06-05 21:42:00,
2013-06-05 17:57:00,57.7,57.0,29.91,East,99,1.0,4.0,97,0.00,,,0.00,weatherlink.com 1.10,2013-06-05 21:57:00,
2013-06-05 18:12:00,57.3,57.0,29.91,East,92,1.0,6.0,97,0.00,,,0.00,weatherlink.com 1.10,2013-06-05 22:12:00,
2013-06-05 18:27:00,56.9,56.0,29.91,East,99,5.0,8.0,97,0.00,,,0.00,weatherlink.com 1.10,2013-06-05 22:27:00,
2013-06-05 18:42:00,56.6,56.0,29.91,SE,126,4.0,9.0,98,0.00,,,0.00,weatherlink.com 1.10,2013-06-05 22:42:00,
2013-06-05 18:57:00,56.6,56.0,29.90,ENE,78,1.0,7.0,98,0.00,,,0.00,weatherlink.com 1.10,2013-06-05 22:57:00,
2013-06-05 19:12:00,56.5,56.0,29.91,NE,56,1.0,7.0,98,0.00,,,0.00,weatherlink.com 1.10,2013-06-05 23:12:00,
2013-06-05 19:27:00,56.5,56.0,29.92,ENE,69,1.0,7.0,98,0.00,,,0.00,weatherlink.com 1.10,2013-06-05 23:27:00,
2013-06-05 19:42:00,56.5,56.0,29.93,ENE,78,2.0,5.0,98,0.00,,,0.00,weatherlink.com 1.10,2013-06-05 23:42:00,
2013-06-05 19:57:00,56.4,56.0,29.93,NE,54,0.0,4.0,98,0.00,,,0.00,weatherlink.com 1.10,2013-06-05 23:57:00,
2013-06-05 20:12:00,56.3,56.0,29.92,ESE,103,2.0,8.0,98,0.00,,,0.00,weatherlink.com 1.10,2013-06-06 00:12:00,
2013-06-05 20:27:00,56.3,56.0,29.92,ESE,107,7.0,7.0,98,0.00,,,0.00,weatherlink.com 1.10,2013-06-06 00:27:00,
2013-06-05 20:42:00,56.4,56.0,29.92,ENE,76,1.0,8.0,98,0.00,,,0.00,weatherlink.com 1.10,2013-06-06 00:42:00,
2013-06-05 20:57:00,56.3,56.0,29.91,ENE,78,0.0,6.0,98,0.00,,,0.00,weatherlink.com 1.10,2013-06-06 00:57:00,
2013-06-05 21:12:00,56.6,56.0,29.91,ENE,69,1.0,9.0,98,0.00,,,0.00,weatherlink.com 1.10,2013-06-06 01:12:00,
2013-06-05 21:27:00,56.8,57.0,29.91,East,93,3.0,8.0,99,0.00,,,0.00,weatherlink.com 1.10,2013-06-06 01:27:00,
2013-06-05 21:42:00,57.0,57.0,29.92,ENE,74,1.0,7.0,99,0.00,,,0.00,weatherlink.com 1.10,2013-06-06 01:42:00,
2013-06-05 21:57:00,57.2,57.0,29.92,ENE,62,0.0,6.0,99,0.00,,,0.00,weatherlink.com 1.10,2013-06-06 01:57:00,
2013-06-05 22:12:00,57.3,57.0,29.92,East,80,2.0,7.0,99,0.00,,,0.00,weatherlink.com 1.10,2013-06-06 02:12:00,
2013-06-05 22:27:00,56.9,57.0,29.92,East,101,1.0,6.0,99,0.00,,,0.00,weatherlink.com 1.10,2013-06-06 02:27:00,
2013-06-05 22:42:00,56.7,56.0,29.92,ENE,71,2.0,7.0,98,0.00,,,0.00,weatherlink.com 1.10,2013-06-06 02:42:00,
2013-06-05 22:57:00,56.6,56.0,29.92,ESE,106,2.0,8.0,99,0.00,,,0.00,weatherlink.com 1.10,2013-06-06 02:57:00,
2013-06-05 23:12:00,56.4,56.0,29.92,NE,47,3.0,7.0,99,0.00,,,0.00,weatherlink.com 1.10,2013-06-06 03:12:00,
2013-06-05 23:27:00,56.1,56.0,29.91,ENE,61,2.0,5.0,99,0.00,,,0.00,weatherlink.com 1.10,2013-06-06 03:27:00,
2013-06-05 23:42:00,56.0,56.0,29.91,East,82,2.0,5.0,99,0.00,,,0.00,weatherlink.com 1.10,2013-06-06 03:42:00,
2013-06-05 23:57:00,56.0,56.0,29.91,ENE,71,1.0,4.0,99,0.00,,,0.00,weatherlink.com 1.10,2013-06-06 03:57:00,